Powrót do katalogu

CZ-6A DEB

AktywnyPO
NORAD 61807·DEBRIS·🇨🇳 China

Wystrzelony Aug 6, 2024 z Taiyuan Satellite Launch Center

Loading…

Następne Przeloty (najbliższe 24 godziny)

TLE

ŚwieżeSource: Space-Track

Epoka: Sep 13, 2026, 23:34 UTC

1 61807U 24140ABX 26256.98256752  .00000822  00000-0  35251-3 0  9999
2 61807  88.9757 262.4671 0033148 232.4268 127.3912 14.23676124103030

Śledź CZ-6A DEB w czasie rzeczywistym z AllMySat

Download on the App Store